Weather History for Defiance, OH

Change the Weather History Date:

Tuesday, April 1, 2014

  Actual Average Record
Temperature  
Mean Temperature 53 °F -  
Max Temperature 60 °F 55 °F 80 °F (1981)
Min Temperature 45 °F 32 °F 15 °F (1969)
Degree Days  
Heating Degree Days 12    
Growing Degree Days 3 (Base 50)    
Moisture  
Dew Point 35 °F    
Average Humidity 50    
Maximum Humidity 68    
Minimum Humidity 39    
Precipitation  
Precipitation 0.02 in - - ()
Sea Level Pressure  
Sea Level Pressure 29.90 in    
Wind  
Wind Speed 12 mph (SW)    
Max Wind Speed 23 mph    
Max Gust Speed 39 mph    
Visibility 10 miles    
Events Rain    
Averages and records for this station are not official NWS values.
T = Trace of Precipitation, MM = Missing Value Source: NWS Daily Summary

Daily Weather History Graph

Daily Weather History Graph

Search for Another Location

Airport:

Trip Planner

Search our weather history database for the weather conditions in past years. The results will help you decide how hot, cold, wet, or windy it might be!

Date:

Astronomy

Apr. 01, 2014 Rise Set
Actual Time 7:20 AM EDT 8:02 PM EDT
Civil Twilight 6:52 AM EDT 8:30 PM EDT
Nautical Twilight 6:20 AM EDT 9:03 PM EDT
Astronomical Twilight 5:45 AM EDT 9:38 PM EDT
Moon 8:21 AM EDT (4/1) 10:26 PM EDT (4/1)
Length of Visible Light 13h 37m
Length of Day
12h 42m
Waxing Crescent, 4% of the Moon is Illuminated
Apr 1
Waxing Crescent
Apr 7
First Quarter
Apr 15
Full
Apr 22
Last Quarter
Apr 29
New

Hourly Weather History & Observations

Time (EDT) Temp. Windchill Dew Point Humidity Pressure Visibility Wind Dir Wind Speed Gust Speed Precip Events Conditions
12:53 AM 55.0 °F - 32.0 °F 42% 29.95 in 10.0 mi South 5.8 mph - N/A   Mostly Cloudy
1:53 AM 55.9 °F - 30.9 °F 39% 29.94 in 10.0 mi South 9.2 mph - N/A   Scattered Clouds
2:53 AM 55.0 °F - 32.0 °F 42% 29.93 in 10.0 mi SSW 10.4 mph - N/A   Overcast
3:53 AM 54.0 °F - 35.1 °F 49% 29.93 in 10.0 mi South 15.0 mph 21.9 mph 0.00 in Rain Light Rain
4:53 AM 50.0 °F - 39.9 °F 68% 29.87 in 10.0 mi SE 10.4 mph - 0.02 in   Overcast
5:53 AM 52.0 °F - 39.0 °F 61% 29.84 in 10.0 mi SSE 10.4 mph - N/A   Overcast
6:53 AM 53.1 °F - 37.0 °F 55% 29.81 in 10.0 mi SSE 12.7 mph - N/A   Mostly Cloudy
7:53 AM 52.0 °F - 37.0 °F 57% 29.82 in 10.0 mi South 12.7 mph - N/A   Mostly Cloudy
8:53 AM 54.0 °F - 37.0 °F 53% 29.81 in 10.0 mi South 13.8 mph - N/A   Clear
9:53 AM 59.0 °F - 41.0 °F 51% 29.80 in 10.0 mi SW 19.6 mph 28.8 mph N/A   Partly Cloudy
10:53 AM 60.1 °F - 42.1 °F 51% 29.80 in 10.0 mi SW 23.0 mph 34.5 mph N/A   Partly Cloudy
11:53 AM 55.9 °F - 36.0 °F 47% 29.82 in 10.0 mi WSW 21.9 mph 39.1 mph N/A   Partly Cloudy
12:53 PM 55.0 °F - 34.0 °F 45% 29.83 in 10.0 mi WSW 17.3 mph 35.7 mph N/A   Partly Cloudy
1:53 PM 57.0 °F - 34.0 °F 42% 29.84 in 10.0 mi WSW 18.4 mph 31.1 mph N/A   Clear
2:53 PM 55.9 °F - 32.0 °F 40% 29.85 in 10.0 mi WSW 18.4 mph 31.1 mph N/A   Clear
3:53 PM 53.1 °F - 30.9 °F 43% 29.88 in 10.0 mi WSW 20.7 mph 35.7 mph N/A   Clear
4:53 PM 53.1 °F - 32.0 °F 45% 29.90 in 10.0 mi WSW 19.6 mph 32.2 mph N/A   Clear
5:53 PM 54.0 °F - 33.1 °F 45% 29.92 in 10.0 mi West 12.7 mph 27.6 mph N/A   Clear
6:53 PM 52.0 °F - 33.1 °F 49% 29.94 in 10.0 mi WSW 13.8 mph 26.5 mph N/A   Clear
7:53 PM 51.1 °F - 32.0 °F 48% 29.97 in 10.0 mi WSW 13.8 mph 19.6 mph N/A   Clear
8:53 PM 48.9 °F - 32.0 °F 52% 29.99 in 10.0 mi WSW 5.8 mph - N/A   Clear
9:53 PM 46.9 °F - 32.0 °F 56% 30.02 in 10.0 mi WSW 6.9 mph - N/A   Clear
10:53 PM 46.0 °F 43.1 °F 32.0 °F 58% 30.05 in 10.0 mi WSW 5.8 mph - N/A   Clear
11:53 PM 45.0 °F 41.8 °F 32.0 °F 60% 30.07 in 10.0 mi WSW 5.8 mph - N/A   Mostly Cloudy